Location: Borkenes
(68.7830°N, 16.1830°E)
Time: 07:08:46
(UTC+01:00)

A-11 Canister half - Visible Passes

Search period start: 07 December 2019 00:00
Search period end: 17 December 2019 00:00
Orbit: 1526 x 1683 km, 47.3° (Epoch: 05 December)

Date Brightness Start Highest point End Pass type
(mag) Time Alt. Az. Time Alt. Az. Time Alt. Az.
07 Dec 11.5 07:17:52 10° S 07:23:06 16° SSE 07:28:18 10° ESE visible
08 Dec 11.5 06:56:30 10° S 07:01:36 15° SSE 07:06:40 10° ESE visible
08 Dec 11.3 08:56:46 10° SW 09:03:31 21° S 09:10:11 10° SE visible
09 Dec 11.4 06:35:08 10° S 06:40:05 15° SSE 06:45:01 10° ESE visible
09 Dec 11.3 08:35:15 10° SW 08:41:59 21° S 08:48:39 10° SE visible
10 Dec 11.4 06:13:48 10° S 06:18:35 15° SSE 06:23:21 10° ESE visible
10 Dec 11.2 08:13:44 10° SW 08:20:27 20° S 08:27:07 10° SE visible
11 Dec 11.3 05:52:28 10° S 05:57:05 14° SE 06:01:40 10° ESE visible
11 Dec 11.2 07:52:14 10° SSW 07:58:56 20° S 08:05:34 10° SE visible
12 Dec 11.3 05:31:09 10° S 05:35:34 14° SE 05:39:59 10° ESE visible
12 Dec 11.2 07:30:43 10° SSW 07:37:24 20° S 07:44:01 10° SE visible
13 Dec 11.3 05:09:52 10° SSE 05:14:04 13° SE 05:18:16 10° ESE visible
13 Dec 11.1 07:09:14 10° SSW 07:15:52 20° SSE 07:22:29 10° SE visible
13 Dec 11.2 09:11:25 10° SW 09:17:58 20° SSW 09:24:27 10° SSE visible
14 Dec 11.2 04:48:36 10° SSE 04:52:34 13° SE 04:56:32 10° ESE visible
14 Dec 11.1 06:47:44 10° SSW 06:54:20 20° SSE 07:00:54 10° SE visible
14 Dec 11.1 08:49:50 10° SW 08:56:26 20° SSW 09:02:59 10° SSE visible
15 Dec 11.2 04:27:22 10° SSE 04:31:04 13° SE 04:34:47 10° ESE visible
15 Dec 11.0 06:26:15 10° SSW 06:32:49 20° SSE 06:39:21 10° SE visible
15 Dec 11.1 08:28:15 10° SW 08:34:54 20° SSW 08:41:31 10° SSE visible
16 Dec 11.2 04:06:10 10° SSE 04:09:34 12° SE 04:12:59 10° ESE visible
16 Dec 11.0 06:04:47 10° SSW 06:11:17 20° SSE 06:17:46 10° SE visible
16 Dec 11.0 08:06:41 10° SW 08:13:23 20° S 08:20:02 10° SSE visible
